[[{"header":{"parameterUnit":"m.s-1","parameterCategory":1,"la1":30.2991,"la2":30.254,"lo1":-89.0895,"lo2":-89.0444,"dy":0.0017,"dx":0.0017,"nx":28,"ny":28,"refTime":"2025-03-18T09:00:00:Z","depth":0,"parameterNumber":2,"parameterNumberName":"U-component_of_WINDS"},"data":[0,0,0,0,0,0,0,0,0,0,0,0,0,0,0,0,0,0,0,0,0,0,0,0,0,0,0,0,0,0,0,0,0,0,0,0,0,0,0,0,0,0,0,0,0,0,0,0,0,0,0,0,0,0,0,0,0,0,-1.7188,-1.7188,0,-1.7182,-1.7182,-1.7182,-1.7161,-1.716,-1.716,-1.7159,-1.7153,-1.7154,-1.7154,0,0,0,0,0,0,0,0,0,0,0,0,0,-1.7183,-1.7183,-1.7188,-1.7188,-1.7188,-1.7182,-1.7182,-1.7182,-1.7161,-1.716,-1.716,-1.7159,-1.7153,-1.7154,-1.7154,0,0,0,0,0,0,0,0,0,0,0,0,0,-1.7182,-1.7183,-1.7188,-1.7177,-1.7176,-1.7182,-1.7182,-1.7182,-1.7161,-1.716,-1.7159,-1.7159,-1.7153,-1.7153,-1.7154,-1.7171,0,0,-1.7155,-1.7155,0,0,0,0,0,0,0,0,-1.7182,-1.7182,-1.7178,-1.7178,-1.7176,-1.7171,-1.7178,-1.7178,-1.7161,-1.7167,-1.7159,-1.7158,-1.716,-1.716,-1.716,-1.717,-1.717,-1.7155,-1.7155,-1.7156,-1.7156,0,0,0,0,0,0,0,-1.7182,-1.7182,-1.7186,-1.7178,-1.7177,-1.7172,-1.7171,-1.7178,-1.7167,-1.7166,-1.7164,-1.7164,-1.7159,-1.716,-1.716,-1.717,-1.7155,-1.7156,-1.7156,-1.7156,-1.7194,-1.7194,0,0,0,0,0,0,-1.7184,-1.7182,-1.7186,-1.7185,-1.7177,-1.7173,-1.7172,-1.7174,-1.7167,-1.7165,-1.7165,-1.7163,-1.7159,-1.7159,-1.7159,-1.7178,-1.7156,-1.7156,-1.7156,-1.7193,-1.7194,-1.7195,0,0,0,0,0,0,-1.7183,-1.7184,-1.7186,-1.7183,-1.7183,-1.7174,-1.7176,-1.7174,-1.7174,-1.7166,-1.7164,-1.7167,-1.7159,-1.7159,-1.7168,-1.7178,-1.7156,-1.7157,-1.7192,-1.7193,-1.7194,-1.7216,0,0,0,0,0,0,-1.7183,-1.7184,-1.719,-1.7184,-1.7183,-1.7194,-1.7176,-1.7174,-1.7175,-1.7173,-1.7168,-1.7166,-1.7158,-1.7167,-1.7168,-1.7178,-1.7157,-1.7191,-1.7193,-1.7194,-1.7214,-1.7218,-1.7221,0,0,0,0,0,-1.7183,-1.7197,-1.719,-1.7191,-1.7191,-1.7195,-1.7195,-1.7185,-1.7176,-1.7182,-1.7177,-1.7166,-1.7177,-1.7169,-1.7169,-1.7179,-1.719,-1.7192,-1.7194,-1.7213,-1.7217,-1.7221,0,0,0,0,0,0,-1.7204,-1.7195,-1.7189,-1.72,-1.7198,-1.7191,-1.7198,-1.719,-1.7191,-1.7189,-1.7177,-1.7176,-1.7187,-1.7184,-1.7175,-1.7195,-1.7182,-1.7184,-1.7196,-1.72,-1.7203,-1.7203,-1.7157,0,0,0,0,0,-1.721,-1.7214,-1.7206,-1.7217,-1.7217,-1.7208,-1.721,-1.7202,-1.72,-1.7199,-1.7195,-1.7193,-1.7196,-1.7198,-1.72,-1.7214,-1.7213,-1.7222,-1.7225,-1.7228,-1.7229,-1.7236,-1.724,-1.72,-1.72,-1.72,0,0,-1.7223,-1.7218,-1.7222,-1.7222,-1.7219,-1.7224,-1.7207,-1.7213,-1.7216,-1.72,-1.7208,-1.7205,-1.7203,-1.7214,-1.7219,-1.7212,-1.724,-1.723,-1.7232,-1.7232,-1.7238,-1.7242,-1.7245,-1.7201,-1.7201,-1.7201,0,0,-1.7247,-1.7245,-1.7253,-1.7252,-1.7248,-1.7243,-1.7245,-1.7239,-1.7236,-1.7244,-1.7232,-1.7237,-1.7242,-1.724,-1.724,-1.7266,-1.7256,-1.7267,-1.7283,-1.729,-1.7293,-1.7296,-1.7304,-1.7308,-1.7269,-1.7269,-1.7269,0,-1.7263,-1.7269,-1.7259,-1.7265,-1.7265,-1.7252,-1.726,-1.7259,-1.7257,-1.7258,-1.725,-1.7257,-1.7254,-1.7265,-1.7271,-1.7272,-1.7274,-1.7267,-1.7293,-1.7296,-1.7298,-1.7306,-1.731,-1.727,-1.727,-1.727,-1.727,0,-1.7288,-1.7293,-1.73,-1.7298,-1.73,-1.7307,-1.7299,-1.7302,-1.7295,-1.729,-1.7298,-1.7295,-1.7296,-1.7298,-1.7292,-1.7309,-1.7304,-1.7296,-1.7282,-1.7304,-1.7311,-1.7314,-1.7272,-1.7271,-1.7271,-1.7271,0,0,-1.7325,-1.7318,-1.7321,-1.732,-1.7316,-1.7319,-1.7326,-1.7328,-1.733,-1.733,-1.7335,-1.734,-1.7332,-1.7332,-1.7325,-1.7332,-1.7352,-1.7322,-1.7322,-1.7327,-1.737,-1.7376,-1.7379,-1.7346,-1.7346,-1.7347,-1.737,0,-1.7348,-1.7359,-1.7351,-1.7364,-1.7368,-1.7355,-1.7361,-1.736,-1.7355,-1.7358,-1.7354,-1.7358,-1.7347,-1.7347,-1.7353,-1.7348,-1.736,-1.7346,-1.7351,-1.7351,-1.7351,-1.7383,-1.739,-1.7411,-1.7372,-1.7373,-1.7373,0,-1.7376,-1.7376,-1.7389,-1.7385,-1.7386,-1.7392,-1.7392,-1.7395,-1.7394,-1.739,-1.7391,-1.7382,-1.7389,-1.7377,-1.7386,-1.7377,-1.7379,-1.7377,-1.7378,-1.7377,-1.7363,-1.7383,-1.7418,-1.7421,-1.7378,-1.7377,-1.7377,0,-1.74,-1.7404,-1.7413,-1.7413,-1.7407,-1.7412,-1.741,-1.7407,-1.7409,-1.7409,-1.741,-1.7412,-1.7413,-1.7414,-1.7407,-1.7398,-1.7417,-1.7404,-1.7414,-1.7415,-1.7418,-1.7418,-1.7453,-1.7421,-1.7421,-1.7421,-1.742,0,-1.7426,-1.7435,-1.7424,-1.7429,-1.7438,-1.7429,-1.7438,-1.7435,-1.7433,-1.7438,-1.7427,-1.7432,-1.7422,-1.7426,-1.742,-1.7429,-1.7429,-1.7427,-1.7425,-1.7427,-1.7427,-1.7427,-1.7425,-1.7421,-1.7421,-1.7421,-1.7421,0,-1.7455,-1.7448,-1.7456,-1.7451,-1.745,-1.7457,-1.7452,-1.7457,-1.7453,-1.7458,-1.7459,-1.7452,-1.7456,-1.7449,-1.7452,-1.7448,-1.746,-1.7456,-1.746,-1.7459,-1.7469,-1.7468,-1.7505,-1.751,-1.7475,-1.7475,-1.7475,0,-1.7472,-1.7478,-1.7473,-1.7475,-1.7474,-1.7478,-1.7479,-1.747,-1.7472,-1.7471,-1.7476,-1.7478,-1.748,-1.7487,-1.7482,-1.7484,-1.748,-1.7493,-1.748,-1.7482,-1.7479,-1.7479,-1.7479,-1.7495,-1.7496,-1.7496,-1.7496,0,-1.7502,-1.7498,-1.75,-1.7501,-1.7503,-1.7504,-1.7503,-1.7506,-1.7497,-1.7499,-1.7503,-1.7504,-1.7507,-1.751,-1.7511,-1.751,-1.7501,-1.7501,-1.7503,-1.7505,-1.7507,-1.7505,-1.7466,-1.7499,-1.7499,-1.7499,-1.7499,-1.7499,-1.7525,-1.7529,-1.7527,-1.753,-1.7529,-1.7529,-1.7533,-1.7529,-1.7531,-1.7533,-1.7528,-1.7533,-1.7531,-1.7532,-1.7531,-1.7535,-1.7529,-1.7533,-1.7533,-1.7534,-1.7536,-1.7507,-1.7535,-1.7535,-1.7535,-1.7535,-1.7535,0,-1.7554,-1.7551,-1.7554,-1.7554,-1.7556,-1.7549,-1.7548,-1.7551,-1.7555,-1.7554,-1.7556,-1.756,-1.7563,-1.7559,-1.7561,-1.7565,-1.7561,-1.7565,-1.7565,-1.7564,-1.7541,-1.7538,-1.7568,-1.7568,-1.7568,-1.7568,-1.7568,-1.7568,-1.7569,-1.7577,-1.7573,-1.758,-1.7578,-1.7582,-1.7583,-1.7583,-1.7582,-1.7587,-1.7589,-1.7586,-1.7584,-1.7586,-1.7588,-1.7587,-1.7588,-1.7594,-1.7591,-1.7569,-1.7566,-1.7563,-1.756,-1.7594,-1.7594,-1.7614,-1.7614,-1.7615]},{"header":{"parameterUnit":"m.s-1","parameterCategory":1,"la1":30.2991,"la2":30.254,"lo1":-89.0895,"lo2":-89.0444,"dy":0.0017,"dx":0.0017,"nx":28,"ny":28,"refTime":"2025-03-18T09:00:00:Z","depth":0,"parameterNumber":3,"parameterNumberName":"V-component_of_WINDS"},"data":[0,0,0,0,0,0,0,0,0,0,0,0,0,0,0,0,0,0,0,0,0,0,0,0,0,0,0,0,0,0,0,0,0,0,0,0,0,0,0,0,0,0,0,0,0,0,0,0,0,0,0,0,0,0,0,0,0,0,5.8072,5.8072,0,5.8105,5.8106,5.8106,5.8027,5.8024,5.8022,5.802,5.805,5.8053,5.8056,0,0,0,0,0,0,0,0,0,0,0,0,0,5.7937,5.794,5.8072,5.8072,5.8073,5.8105,5.8106,5.8106,5.8027,5.8024,5.8021,5.8018,5.8049,5.8053,5.8056,0,0,0,0,0,0,0,0,0,0,0,0,0,5.7986,5.7941,5.8072,5.8037,5.8035,5.8105,5.8106,5.8106,5.8028,5.8024,5.8021,5.8017,5.8048,5.8052,5.8057,5.8161,0,0,5.8071,5.8073,0,0,0,0,0,0,0,0,5.7983,5.7991,5.8042,5.804,5.8037,5.8058,5.8069,5.8125,5.8029,5.803,5.802,5.8015,5.8055,5.8059,5.8074,5.8162,5.8164,5.8072,5.8074,5.8076,5.8078,0,0,0,0,0,0,0,5.798,5.7989,5.8085,5.8043,5.804,5.802,5.8022,5.8079,5.8063,5.803,5.8024,5.803,5.8053,5.8069,5.8074,5.8164,5.8071,5.8076,5.8079,5.808,5.8342,5.8346,0,0,0,0,0,0,5.7981,5.7987,5.8084,5.8086,5.8,5.8025,5.8028,5.8055,5.8063,5.806,5.8033,5.8026,5.8063,5.8068,5.8075,5.8198,5.8076,5.8081,5.8084,5.8338,5.8343,5.8348,0,0,0,0,0,0,5.7979,5.7991,5.8082,5.8035,5.8045,5.8031,5.8062,5.8058,5.8074,5.8065,5.8061,5.8052,5.806,5.8068,5.8141,5.8198,5.8083,5.8087,5.8333,5.834,5.8345,5.8445,0,0,0,0,0,0,5.7975,5.799,5.803,5.8036,5.8048,5.8149,5.8066,5.8061,5.8083,5.8074,5.8082,5.808,5.8058,5.8134,5.8146,5.8202,5.8091,5.8328,5.8336,5.8343,5.8437,5.8454,5.8469,0,0,0,0,0,5.7971,5.8055,5.8032,5.8045,5.8097,5.8152,5.8159,5.8133,5.8087,5.8127,5.8122,5.808,5.819,5.8142,5.8154,5.8213,5.8324,5.8334,5.8343,5.8429,5.8451,5.8468,0,0,0,0,0,0,5.8053,5.8055,5.803,5.8119,5.8137,5.8139,5.8188,5.8156,5.8185,5.8176,5.8142,5.8144,5.8224,5.8226,5.8173,5.8316,5.8249,5.8262,5.8311,5.8331,5.8347,5.8344,5.8095,0,0,0,0,0,5.8083,5.8128,5.8127,5.8206,5.8216,5.8201,5.8224,5.8203,5.8219,5.8225,5.8225,5.8242,5.828,5.8306,5.8341,5.8437,5.8438,5.8484,5.85,5.8513,5.8524,5.8576,5.8597,5.8378,5.8378,5.8378,0,0,5.8142,5.8149,5.8179,5.8223,5.8234,5.8281,5.8207,5.826,5.8295,5.8233,5.8302,5.8304,5.8319,5.8405,5.8443,5.8409,5.8585,5.8525,5.8536,5.8539,5.8588,5.8609,5.8627,5.8384,5.8383,5.8382,0,0,5.8275,5.8285,5.8352,5.8366,5.8385,5.8374,5.8391,5.8399,5.8398,5.8468,5.8423,5.8464,5.8531,5.8544,5.856,5.8703,5.8665,5.8715,5.8798,5.885,5.8867,5.8882,5.8933,5.8952,5.8726,5.8726,5.8726,0,5.8345,5.8416,5.839,5.8448,5.8469,5.8418,5.8486,5.85,5.8528,5.8544,5.8506,5.8591,5.8598,5.8687,5.8722,5.8737,5.8754,5.8713,5.8867,5.8882,5.8895,5.8944,5.8963,5.8732,5.8731,5.8731,5.873,0,5.8503,5.8553,5.8606,5.8637,5.8664,5.8727,5.871,5.874,5.8719,5.8713,5.8785,5.8792,5.8829,5.8849,5.8826,5.8935,5.8914,5.8873,5.8805,5.8923,5.8968,5.8986,5.874,5.8738,5.8736,5.8735,0,0,5.8685,5.8705,5.8725,5.8739,5.8758,5.8796,5.8857,5.8894,5.8921,5.8944,5.8993,5.9053,5.9016,5.9034,5.9014,5.9059,5.9173,5.9012,5.9012,5.9042,5.9294,5.9324,5.9346,5.9149,5.9152,5.9155,5.9292,0,5.8816,5.8922,5.8903,5.9006,5.9052,5.9006,5.9059,5.9077,5.9074,5.9112,5.9108,5.9151,5.9099,5.911,5.9153,5.915,5.9223,5.914,5.9194,5.9196,5.9191,5.9369,5.9401,5.953,5.931,5.9313,5.9315,0,5.8983,5.9015,5.9123,5.9137,5.9156,5.9204,5.9238,5.9276,5.9295,5.929,5.9312,5.9284,5.9344,5.9278,5.9361,5.9305,5.9327,5.9329,5.9333,5.9336,5.9262,5.9377,5.9571,5.959,5.9342,5.934,5.9338,0,5.9105,5.9175,5.9249,5.9263,5.9281,5.9316,5.9325,5.9341,5.9366,5.9396,5.9411,5.9447,5.9467,5.9495,5.9478,5.9431,5.9564,5.9496,5.9561,5.9562,5.9589,5.9587,5.9789,5.9605,5.9605,5.9605,5.9604,0,5.9253,5.9321,5.9304,5.935,5.9425,5.9403,5.9478,5.9481,5.9496,5.9541,5.9504,5.9547,5.9522,5.9563,5.955,5.9621,5.963,5.9627,5.9622,5.963,5.963,5.9642,5.9632,5.961,5.9609,5.9608,5.9607,0,5.94,5.9392,5.9471,5.9483,5.9488,5.9543,5.9553,5.9595,5.9591,5.9649,5.9661,5.9654,5.9701,5.9688,5.9737,5.9728,5.9819,5.9803,5.9813,5.9809,5.9874,5.9868,6.0089,6.0117,5.9917,5.9919,5.992,0,5.9495,5.9547,5.9566,5.9595,5.9607,5.9654,5.968,5.966,5.9689,5.9717,5.9756,5.9801,5.9834,5.9912,5.991,5.9949,5.9933,6.0009,5.9938,5.9945,5.9934,5.9931,5.9936,6.0022,6.0024,6.0026,6.0027,0,5.9663,5.9657,5.9697,5.9738,5.9771,5.98,5.9826,5.9852,5.9834,5.9869,5.9917,5.9944,5.9997,6.0042,6.0078,6.0085,6.0054,6.005,6.0067,6.0074,6.0078,6.0077,5.985,6.0044,6.0043,6.0041,6.004,6.004,5.9786,5.9831,5.9853,5.9899,5.9918,5.9944,5.9986,5.9988,6.0029,6.0072,6.0058,6.0114,6.0134,6.0179,6.0193,6.0236,6.0207,6.0232,6.0238,6.0244,6.0252,6.0073,6.0242,6.0242,6.0241,6.0241,6.0241,0,5.9952,5.9965,6.0008,6.0048,6.0085,6.0055,6.0084,6.0116,6.0167,6.0189,6.0224,6.0281,6.0325,6.0329,6.037,6.0404,6.0391,6.0416,6.0412,6.0415,6.0276,6.0257,6.0426,6.0426,6.0426,6.0426,6.0426,6.0426,6.0043,6.0118,6.0115,6.0199,6.0211,6.0267,6.0286,6.0311,6.0329,6.0395,6.0432,6.0435,6.045,6.0493,6.0532,6.0532,6.0548,6.0579,6.0573,6.0443,6.0424,6.0407,6.0389,6.0583,6.0583,6.0709,6.071,6.0711]}]]